CHINASAT 1A (ZX 1A)

Last updated on Aug. 2, 2020, 5:30 a.m. UTC

1 37804U 19001A   20214.87608993 -.00000356  00000-0  00000-0 0  9997
2 37804   0.0349 213.1464 0000466 249.9621 293.0187  1.00271538 32563
UTC
Height (km)
Latitude
Longitude
Inclination
Orbital Period
UTC large
Height (km)
Speed (km/s)
/
Latitude / Longitude
Inclination (degrees)
Orbital Period (minutes)
Azimuth
Elevation
Range (km)
Doppler Factor
iOS Compass Heading
iOS Angle

Next 30 passes for location: Hong Kong

Rise time Rise Azimuth (degrees) Set time Set Azimuth (degrees) Duration Max altitude (degrees)

No matching passes for this satellites